Miscellaneous Local Product
Issued by NWS Hastings, NE

Home | Current Version | Previous Version | Graphics & Text | Print | Product List | Glossary On
Versions: 1 2 3 4 5 6 7 8 9 10 11 12 13 14 15 16 17 18 19 20 21 22 23 24 25 26 27 28 29 30 31 32 33 34 35 36 37 38 39 40 41 42 43 44 45 46 47 48 49 50
000
AXUS43 KGID 221102
MISGRI

GID CWA HOURLY WEATHER ROUNDUP
NATIONAL WEATHER SERVICE HASTINGS NE
600 AM CDT SAT JUL 22 2017

NOTE: "FAIR" INDICATES FEW OR NO CLOUDS BELOW 12,000 FEET WITH NO
SIGNIFICANT WEATHER AND/OR OBSTRUCTIONS TO VISIBILITY.

...SOUTH CENTRAL NEBRASKA...

CITY           SKY/WX    TMP DP  RH WIND       PRES   REMARKS
GRAND ISLAND   CLOUDY    74  70  87 N7        29.86S
HASTINGS       CLOUDY    74  68  81 NE5       29.87S
KEARNEY        MOCLDY    76  68  76 N10       29.88R
ORD            CLEAR     73  64  73 NW9       29.85R
YORK           MOCLDY    72  68  88 W10       29.86R
AURORA         CLOUDY    73  69  86 N12       29.83F
LEXINGTON      CLEAR     74  62  64 N6        29.91R
HOLDREGE       CLEAR     72  60  66 N7        29.88S
HEBRON         PTCLDY    79  63  58 CALM      29.83R

...NEBRASKA PANHANDLE...

CITY           SKY/WX    TMP DP  RH WIND       PRES   REMARKS
CHADRON        CLOUDY    60  53  77 N9        30.02R
ALLIANCE       CLOUDY    64  56  75 NW6       30.03F
SCOTTSBLUFF    PTCLDY    65  55  70 MISG      30.05F
SIDNEY         CLOUDY    67  54  63 NW8       30.09R

...WESTERN AND NORTH CENTRAL NEBRASKA...

CITY           SKY/WX    TMP DP  RH WIND       PRES   REMARKS
VALENTINE      CLEAR     65  56  72 SW8       29.95R
AINSWORTH      CLEAR     67  62  82 CALM      29.94S
ONEILL         CLOUDY    75  75 100 N3        29.90S FOG
BROKEN BOW     CLEAR     73  63  70 CALM      29.91R
IMPERIAL       CLOUDY    69  58  67 NE10      29.96R
NORTH PLATTE   CLEAR     75  54  47 CALM      29.95R
MCCOOK         PTCLDY    74  57  55 NW8       29.90R

...EASTERN NEBRASKA...

CITY           SKY/WX    TMP DP  RH WIND       PRES   REMARKS
NORFOLK        CLOUDY    76  74  93 NE7       29.84R
SO SIOUX CITY  CLOUDY    75  73  93 E5        29.79F
TEKAMAH        CLOUDY    77  74  90 NE9       29.78F
COLUMBUS       CLOUDY    75  74  96 NE8       29.82R FOG
ALBION         CLOUDY    72  68  87 N10       29.86R
OMAHA EPPLEY   CLOUDY    79  75  87 N14       29.78R
OFFUTT AFB     PTCLDY    79  73  80 N7        29.76R
MILLARD        CLOUDY    83  80  91 N5        29.78R HX  95
LINCOLN        CLEAR     78  70  76 N10       29.80R
NEBRASKA CITY  CLOUDY    79  68  68 W10       29.78S
BEATRICE       CLOUDY    76  64  67 CALM      29.81S
FALLS CITY     NOT AVBL

...NORTHERN KANSAS...

CITY           SKY/WX    TMP DP  RH WIND       PRES   REMARKS
GOODLAND       PTCLDY    69  56  62 W7        29.98S
HILL CITY      PTCLDY    74  58  57 W8        29.89R
NORTON         SUNNY     75  50  41 N9        29.86S
PHILLIPSBURG   CLEAR     75  59  57 N3        29.84S
SMITH CENTER   CLEAR     72  59  64 CALM      29.83F
HAYS           CLEAR     71  57  61 SW7       29.87S
RUSSELL        PTCLDY    77  58  51 SW13      29.84S
CONCORDIA      CLEAR     79  62  56 SW10      29.81S
SALINA         CLEAR     83  64  52 S13       29.82S
TOPEKA         CLEAR     83  73  72 SW7       29.81S



USA.gov is the U.S. government's official web portal to all federal, state and local government web resources and services.